EHI
15 16 17 17 22 29 31 27 23 22 22 19 17 15 12 9 7 7 9 11 11 8 6 7 9 9 10 11 11 11 11 12 12 11 11 10 7 7 9 10 10 11 11
19 21 21 21 27 34 34 31 29 27 23 20 18 16 15 12 8 9 14 16 14 12 10 11 11 10 10 12 13 13 12 12 11 10 10 10 8 7 7 9 11 12 14
25 27 28 27 31 37 37 37 36 32 26 22 18 16 17 14 10 12 17 19 18 17 16 17 16 13 12 13 15 15 13 12 11 11 10 9 9 9 9 9 11 14 16
28 32 35 33 32 35 38 42 43 38 30 23 18 16 15 12 10 13 17 19 19 19 20 20 20 17 13 12 14 14 13 12 11 11 11 10 11 13 12 11 10 13 14
29 33 37 36 33 32 38 45 48 44 35 25 21 18 14 11 10 12 16 19 20 20 21 20 20 17 12 10 11 12 12 12 12 12 13 12 13 15 15 12 11 11 11
25 29 35 38 34 32 38 46 52 49 39 29 24 21 18 15 13 14 16 16 18 20 22 20 19 15 12 11 10 10 11 11 11 12 13 14 15 16 15 12 11 11 11
19 25 34 39 37 36 41 50 53 49 42 33 27 24 22 19 17 16 15 13 14 19 23 22 19 15 12 12 12 11 10 11 11 12 13 14 15 15 14 12 10 10 10
16 23 33 40 41 41 45 51 52 48 40 34 29 26 23 19 17 16 15 12 11 16 23 24 21 16 13 12 13 12 11 11 12 11 12 14 15 14 12 11 10 9 9
17 21 29 37 42 45 48 50 52 47 38 31 28 27 23 20 17 17 16 14 13 17 22 23 21 18 15 15 13 13 13 13 12 11 10 12 13 12 11 10 10 11 11
16 21 27 34 40 45 48 49 50 46 35 27 25 24 24 24 22 21 19 18 19 23 24 23 20 17 17 17 15 13 13 14 13 11 10 10 11 12 12 11 11 13 15
16 19 25 31 36 42 46 48 47 42 32 25 23 22 24 26 26 24 23 24 27 30 31 27 21 18 18 19 17 13 13 13 14 13 12 12 13 14 15 14 13 14 16
17 18 24 30 35 39 44 46 45 38 31 27 24 23 25 26 26 25 27 31 34 35 33 29 25 22 20 19 17 14 12 12 14 14 14 14 14 16 18 16 13 12 12
19 21 28 34 38 40 43 45 43 37 32 29 26 25 27 29 28 28 31 35 37 36 33 30 27 24 21 19 17 14 11 10 12 13 13 13 13 15 17 17 15 13 11
22 26 34 39 40 41 44 45 40 35 33 32 30 30 33 36 35 34 35 36 37 36 34 31 29 25 21 18 16 13 11 10 10 11 11 10 10 12 14 14 14 13 13
24 28 37 41 40 40 43 43 38 35 36 37 37 38 40 42 41 40 39 39 36 34 34 33 30 26 20 15 13 13 12 10 10 11 10 9 9 9 10 11 11 11 11
25 27 33 39 40 40 43 44 41 38 39 39 39 40 42 42 42 42 42 42 37 33 33 34 32 27 20 12 9 10 12 11 10 11 11 10 8 8 8 9 8 8 8
26 25 25 32 39 42 45 47 45 42 41 39 38 40 41 41 40 39 41 42 40 36 35 35 34 29 21 12 6 6 9 11 12 13 14 12 10 8 8 8 8 7 7
27 25 23 28 36 42 45 46 46 45 42 40 39 41 42 42 40 37 37 39 40 39 39 38 37 34 25 14 7 4 8 13 17 18 18 16 13 10 9 9 10 10 10
28 26 25 28 34 40 43 44 45 45 43 41 39 39 39 39 39 38 37 36 37 39 41 40 40 37 28 17 7 4 8 15 19 20 19 17 15 13 11 12 14 14 13
28 28 28 31 38 42 43 41 41 41 41 40 38 35 34 35 36 37 38 37 36 38 40 40 38 36 30 19 7 4 9 15 17 17 16 14 13 12 12 14 16 16 15
29 30 32 38 44 46 43 40 37 37 37 37 36 34 31 31 33 37 41 40 38 37 38 38 36 34 30 20 8 4 8 13 14 14 12 11 9 7 7 10 12 12 11
29 30 34 40 44 44 41 38 36 35 34 34 34 32 30 28 29 36 41 42 41 38 37 36 33 32 28 20 10 4 4 7 10 10 9 7 4 2 2 3 5 5 5
28 29 32 36 37 37 36 36 36 35 35 34 33 30 28 26 26 31 35 38 38 35 33 32 29 28 26 20 11 4 1 2 4 6 5 2 1 0 0 0 0 1 2
27 27 29 30 30 29 30 32 34 36 36 34 30 26 24 23 24 25 26 27 29 28 26 26 26 26 26 21 13 7 3 2 3 3 3 3 3 2 2 2 2 3 4
24 25 27 27 27 26 26 28 31 33 33 30 26 22 20 21 22 21 19 18 18 18 18 19 22 23 22 17 10 6 5 4 4 4 6 7 7 6 6 5 6 8 8
23 24 25 25 24 24 25 27 30 30 30 28 24 20 18 20 23 20 17 13 12 11 11 14 17 18 15 11 5 3 3 4 4 6 9 10 8 7 7 7 9 11 12
Wind_Speed
11 10 9 10 9 8 7 5 5 4 2 2 1 2 1 1 2 3 3 2 1 1 1 1 1 1 1 1 1 1 1 0 1 0 1 1 1 1 1 1 1 1 2
11 10 9 9 9 8 7 5 5 4 3 2 1 1 1 1 2 2 3 2 2 1 2 1 0 1 1 1 0 1 1 1 0 0 1 0 1 1 1 2 2 1 1
13 12 10 9 9 9 8 6 5 5 3 3 2 1 1 1 2 2 2 2 2 1 1 1 1 1 0 0 1 1 1 2 2 1 1 0 0 1 1 1 1 1 1
13 12 11 10 9 9 9 7 6 5 4 3 2 2 2 2 2 2 2 2 2 2 1 1 1 1 1 1 1 1 2 2 2 1 1 0 0 0 1 1 0 1 1
12 12 12 11 9 9 9 8 6 5 4 3 2 1 1 1 1 1 2 2 2 2 1 1 1 0 1 1 2 2 2 2 2 2 1 1 1 1 1 1 1 1 1
10 12 12 10 9 9 9 9 7 6 5 4 3 2 2 1 0 0 1 2 2 1 2 2 1 0 0 1 1 1 2 2 2 2 2 1 1 1 1 1 1 1 1
9 10 11 11 9 9 8 8 8 6 6 5 3 3 2 1 1 2 1 1 1 1 1 1 1 1 1 1 1 1 1 2 2 3 2 2 2 2 1 1 1 1 1
10 10 12 11 10 9 8 9 8 7 6 5 4 3 2 2 1 1 1 1 0 1 2 1 1 0 1 1 1 1 1 1 2 2 2 2 2 2 1 1 1 2 2
9 9 11 11 10 9 9 9 9 7 6 5 4 3 3 2 1 1 1 1 0 1 2 1 1 0 0 1 1 1 1 1 2 2 2 2 2 2 2 2 1 1 2
8 8 8 8 9 9 8 8 8 7 6 5 4 4 3 2 1 1 1 0 0 1 1 0 0 1 1 1 1 1 1 1 2 2 2 2 2 3 3 2 2 1 1
5 7 8 7 7 8 9 8 8 7 6 6 4 3 4 3 3 2 1 1 0 1 0 1 1 1 1 0 1 2 1 2 2 2 2 2 2 3 3 3 2 2 1
5 6 7 7 6 7 7 7 7 6 6 6 5 4 3 3 3 3 2 2 2 2 1 1 1 1 1 1 1 2 2 2 2 2 2 3 3 3 3 3 3 2 2
5 6 5 5 5 5 5 5 5 6 6 6 6 5 4 4 3 3 2 2 2 2 2 1 2 2 1 1 1 2 2 2 2 2 2 2 3 3 3 3 3 3 3
5 5 5 5 4 4 4 4 4 4 4 4 4 4 4 4 3 3 2 2 2 2 2 2 2 2 1 1 1 1 2 2 2 2 2 2 2 3 4 3 3 3 3
6 6 6 4 4 4 4 4 3 3 3 3 3 3 3 3 3 3 2 2 2 3 2 2 2 2 1 2 1 2 2 2 2 2 2 2 2 3 3 4 3 3 3
4 5 6 5 4 4 4 4 3 3 3 3 3 2 2 2 2 2 2 2 2 2 2 2 2 2 3 2 2 2 3 2 2 2 2 2 1 2 2 4 4 4 4
3 3 3 4 4 4 4 4 3 3 3 2 2 2 2 2 2 2 2 2 2 2 3 2 2 2 1 2 2 2 3 3 2 2 2 3 2 2 2 3 4 4 5
2 2 3 3 3 3 3 3 4 3 3 2 2 2 2 2 2 2 2 2 2 2 3 3 3 2 2 2 3 3 4 3 2 2 2 1 1 3 3 3 3 2 3
1 0 1 2 2 2 3 2 3 3 3 2 2 2 2 2 2 2 2 2 2 3 2 2 2 2 2 3 3 3 3 3 3 3 3 2 2 3 3 3 3 3 3
1 1 0 1 1 1 2 2 3 3 3 2 2 1 1 2 2 2 2 2 3 2 3 2 2 2 2 3 3 3 3 3 3 3 3 4 3 3 2 3 3 4 4
2 1 2 2 2 2 2 2 2 3 3 2 2 1 1 2 2 2 2 2 2 2 2 2 3 3 3 3 4 4 3 3 3 3 3 3 4 4 4 3 3 5 5
1 1 2 2 1 1 1 2 2 1 1 2 2 2 2 3 2 2 2 2 3 3 3 3 3 3 2 3 4 5 5 4 4 3 2 2 3 4 5 4 5 6 5
1 1 1 2 1 1 1 1 1 1 1 2 2 2 2 2 2 2 3 3 3 3 3 3 3 2 2 1 3 4 6 6 4 3 4 3 3 3 4 6 6 5 4
1 1 1 1 0 0 0 1 1 2 2 2 1 2 2 2 2 2 2 2 2 2 3 2 2 2 1 0 0 1 2 3 4 4 4 4 5 4 4 3 4 4 3
1 1 1 1 1 0 0 1 1 1 1 1 1 2 3 3 2 2 2 2 1 1 2 2 2 2 1 1 1 1 2 2 3 3 3 2 2 3 3 3 3 3 3
1 1 1 1 1 1 0 0 0 1 1 2 2 3 3 2 2 2 2 2 3 3 3 3 2 1 1 2 2 3 3 4 3 2 3 3 3 3 3 3 2 2 2
Wind_Direction
158 155 153 146 144 138 138 143 137 136 161 146 149 142 139 153 135 134 121 122 110 78 96 42 71 96 65 53 16 14 292 235 178 61 304 271 243 192 181 187 192 162 155
155 156 157 155 150 146 146 147 149 156 172 134 127 161 156 157 135 117 128 139 148 166 131 124 18 97 126 87 284 317 314 297 266 274 282 290 338 306 212 174 181 176 177
163 162 164 164 158 155 159 165 162 159 167 156 170 158 152 129 120 143 145 153 158 123 65 59 37 359 65 358 302 336 299 292 290 277 279 277 284 312 310 265 162 159 175
164 166 168 168 168 165 162 154 156 159 160 173 191 188 175 163 168 161 134 164 164 146 141 132 78 353 30 2 301 34 309 284 290 281 243 206 168 258 315 303 314 189 193
166 167 170 170 172 167 161 155 153 155 161 182 192 205 207 179 164 144 140 171 164 159 151 136 139 2 20 2 16 7 336 336 340 327 313 295 235 237 222 272 284 276 226
164 164 165 164 170 167 162 157 152 157 163 182 190 200 226 229 110 174 156 200 171 156 138 142 131 68 23 359 5 332 349 355 342 327 322 316 306 290 262 255 261 259 243
157 163 163 163 167 169 163 153 151 160 169 181 187 181 212 210 225 250 235 240 184 137 123 118 111 55 20 320 337 325 351 2 341 325 324 325 312 307 317 277 287 292 264
154 163 163 162 166 166 160 154 153 161 170 177 176 176 181 197 219 221 272 272 343 98 119 116 113 92 326 331 326 313 322 341 315 315 332 320 312 308 311 284 286 298 298
150 163 161 162 166 165 164 161 156 161 169 169 157 157 170 193 232 191 211 285 355 119 106 120 153 191 217 319 324 318 320 320 308 312 330 318 302 304 308 300 297 269 294
151 151 155 163 163 164 162 160 156 158 160 160 171 170 176 188 192 202 239 247 28 19 101 119 254 268 244 233 259 278 270 291 309 309 324 320 320 325 312 312 305 279 260
140 145 150 148 154 154 155 155 155 157 165 171 175 174 176 181 183 195 216 220 250 274 234 250 268 259 254 277 286 292 302 294 299 307 317 315 315 319 317 317 311 307 298
129 136 141 148 160 156 157 156 158 161 167 169 172 182 179 179 191 199 203 208 220 234 226 242 273 271 258 245 263 277 291 294 296 304 312 314 321 323 314 315 312 311 308
118 119 124 139 147 148 146 150 155 160 166 171 179 183 183 183 193 204 200 207 222 233 237 230 241 255 265 261 269 271 280 285 296 301 295 308 317 315 315 309 305 304 305
115 116 109 113 119 125 130 136 146 156 159 165 182 180 184 180 189 203 201 199 210 224 232 240 242 238 238 265 277 289 275 288 304 304 303 307 305 309 307 300 301 303 298
112 105 107 112 128 136 136 137 150 155 157 164 183 170 168 162 177 193 199 199 215 230 230 234 248 243 220 252 255 268 259 265 278 284 288 303 336 342 326 313 318 313 302
120 121 123 125 139 148 144 145 153 157 166 177 181 164 164 160 175 192 200 211 225 239 242 240 236 247 257 254 234 248 268 254 254 258 262 253 264 294 297 303 311 307 297
115 116 128 136 146 152 155 165 162 164 173 180 169 156 167 176 189 221 212 222 239 250 253 248 230 237 256 261 261 271 260 265 264 253 262 276 289 282 290 285 277 287 294
110 132 151 148 157 153 159 178 165 167 172 179 171 165 174 201 206 219 232 234 241 243 246 250 247 243 253 251 245 265 248 260 254 245 247 261 287 302 313 300 301 300 309
74 95 160 154 145 168 164 159 176 177 179 186 184 187 195 210 214 222 231 234 243 250 247 251 243 237 246 247 239 236 246 249 246 236 246 250 246 285 307 296 298 299 293
51 39 66 124 129 130 142 162 192 189 190 192 194 207 215 232 227 237 241 247 247 243 247 250 251 240 232 231 219 218 250 258 254 243 234 242 246 268 281 276 283 288 293
72 60 68 84 113 127 144 180 201 208 195 177 185 206 225 245 231 240 242 247 255 253 250 254 251 240 223 203 200 201 238 262 265 258 242 237 229 236 244 254 266 271 282
36 88 88 99 107 126 150 182 201 205 171 171 199 205 220 253 251 251 257 249 244 245 239 243 252 251 221 188 193 204 230 277 278 272 274 270 240 241 241 245 267 275 281
32 56 87 99 98 106 126 207 210 190 184 189 212 228 232 250 274 252 254 253 242 243 247 241 244 254 243 195 195 216 237 260 276 300 309 297 254 256 245 242 255 262 260
26 29 63 99 56 49 163 258 242 199 215 220 227 234 237 246 256 252 252 256 268 273 271 270 265 270 260 204 150 221 240 252 264 285 294 273 252 258 268 257 243 242 254
17 10 24 53 47 27 230 236 261 215 216 243 248 252 252 244 248 246 267 263 276 269 277 300 307 298 292 326 8 335 300 291 282 284 263 248 246 249 246 238 238 240 241
20 21 23 43 49 44 318 262 273 232 219 248 261 267 270 262 246 239 245 257 238 225 217 214 234 238 210 219 251 270 275 274 288 280 260 257 253 258 260 252 251 248 254